Location: Bidart
(43.4376°N, 1.5913°W)
Time: 22:29:44
(UTC+00:00)

Cosmos 1833 Rocket - Pass Details

Date: 19 May 2025
Orbit: 831 x 839 km, 71.0° (Epoch: 11 June)

Event Time Altitude Azimuth Distance (km) Brightness Sun altitude
Rises 22:03:44 0° 231° (SW) 3,380 5.7 -20.9°
Reaches altitude 10° 22:06:24 10° 241° (WSW) 2,450 5.1 -21.2°
Maximum altitude 22:11:27 34° 305° (NW) 1,368 4.3 -21.6°
Drops below altitude 10° 22:16:33 10° 9° (N) 2,463 5.8 -22.0°
Sets 22:19:15 0° 19° (NNE) 3,401 6.5 -22.3°
